This demonstration page uses our WeatherBlox Daily Observations layout. Learn more.

Left ArrowRight Arrow

39.29038, -76.61219

Hourly Observations for January 23, 2022

Temp ( °F °C ) Dew Point ( °F °C ) Humidity (%) Winds ( mph kmh ) Pressure ( in mb ) Visibility ( mi km ) Precip ( " mm )
12:54 am 00:54 Partly Cloudy 23 -5 7 -13.9 50 50 Calm 30.11 1020 10 16 0.00 0.00
1:54 am 01:54 Partly Cloudy 21 -6.1 8 -13.3 57 57 Calm 30.09 1019 10 16 0.00 0.00
2:54 am 02:54 Mostly Cloudy 20 -6.7 10 -12.2 65 65 Calm 30.08 1019 10 16 0.00 0.00
3:54 am 03:54 Mostly Cloudy 19 -7.2 9 -12.8 65 65 W 3 6 30.05 1018 10 16 0.00 0.00
4:54 am 04:54 Partly Cloudy 21 -6.1 9 -12.8 59 59 Calm 30.04 1017 10 16 0.00 0.00
5:54 am 05:54 Mostly Cloudy 19 -7.2 10 -12.2 68 68 Calm 30.03 1017 10 16 0.00 0.00
6:54 am 06:54 Mostly Cloudy 19 -7.2 12 -11.1 74 74 WSW 3 6 30.03 1017 10 16 0.00 0.00
7:54 am 07:54 Mostly Cloudy 25 -3.9 13 -10.6 60 60 Calm 30.00 1016 10 16 0.00 0.00
8:54 am 08:54 Mostly Cloudy 31 -0.6 18 -7.8 59 59 undefined N/A 29.99 1016 10 16 0.00 0.00
9:54 am 09:54 Partly Cloudy 35 1.7 18 -7.8 50 50 WNW 8 13 29.97 1015 10 16 0.00 0.00
10:54 am 10:54 Partly Cloudy 39 3.9 18 -7.8 43 43 W 8 13 29.95 1014 10 16 0.00 0.00
11:54 am 11:54 Mostly Cloudy 38 3.3 17 -8.3 43 43 SW 3 6 29.91 1013 10 16 0.00 0.00
12:54 pm 12:54 Cloudy 39 3.9 14 -10 36 36 WSW 12 19 29.86 1011 10 16 0.00 0.00
1:54 pm 13:54 Cloudy 40 4.4 14 -10 35 35 SSW 8 13 29.83 1010 10 16 0.00 0.00
2:54 pm 14:54 Cloudy 40 4.4 14 -10 35 35 SSW 3 6 29.81 1009 10 16 0.00 0.00
3:54 pm 15:54 Cloudy 37 2.8 19 -7.2 48 48 SE 9 15 29.79 1009 10 16 0.00 0.00
4:54 pm 16:54 Cloudy 36 2.2 20 -6.7 52 52 SE 6 9 29.78 1009 10 16 0.00 0.00
5:54 pm 17:54 Mostly Cloudy 35 1.7 21 -6.1 57 57 Calm 29.78 1009 10 16 0.00 0.00
6:54 pm 18:54 Mostly Cloudy 34 1.1 22 -5.6 61 61 Calm 29.78 1009 10 16 0.00 0.00
7:54 pm 19:54 Mostly Cloudy 32 0 22 -5.6 66 66 Calm 29.79 1009 10 16 0.00 0.00
8:54 pm 20:54 Cloudy 33 0.6 23 -5 66 66 Calm 29.79 1009 10 16 0.00 0.00
9:54 pm 21:54 Cloudy 32 0 24 -4.4 73 73 Calm 29.80 1009 10 16 0.00 0.00
10:54 pm 22:54 Cloudy 31 -0.6 23 -5 72 72 WSW 3 6 29.80 1009 10 16 0.00 0.00
11:54 pm 23:54 Mostly Cloudy 30 -1.1 23 -5 75 75 Calm 29.81 1009 10 16 0.00 0.00

Powered by AerisWeather